This is the latest recevied weather packets stored in our database for station/object F5ZYU-10. If no packets are shown the sender has not sent any weather packets the latest 10 day(s).
| Time | Temp. | Humidity | Pressure | Rain* | Wind** | Luminosity | Snow |
|---|---|---|---|---|---|---|---|
| 1777740349 | 17.78° C | 69% | 1024.9 hPa | - | - | - | - |
| 1777739449 | 17.78° C | 69% | 1024.6 hPa | - | - | - | - |
| 1777738549 | 18.33° C | 68% | 1024.6 hPa | - | - | - | - |
| 1777737649 | 18.33° C | 68% | 1024.3 hPa | - | - | - | - |
| 1777736749 | 18.89° C | 69% | 1023.9 hPa | - | - | - | - |
| 1777735849 | 20° C | 71% | 1024 hPa | - | - | - | - |
| 1777734949 | 19.44° C | 71% | 1024.1 hPa | - | - | - | - |
| 1777734051 | 18.89° C | 71% | 1023.7 hPa | - | - | - | - |
| 1777733148 | 19.44° C | 70% | 1024.4 hPa | - | - | - | - |
| 1777732248 | 19.44° C | 69% | 1024.5 hPa | - | - | - | - |
| 1777731348 | 19.44° C | 71% | 1024.7 hPa | - | - | - | - |
| 1777730450 | 18.89° C | 71% | 1024.7 hPa | - | - | - | - |
| 1777729550 | 18.89° C | 71% | 1025.1 hPa | - | - | - | - |
| 1777728650 | 18.89° C | 71% | 1025.4 hPa | - | - | - | - |
| 1777727750 | 18.89° C | 72% | 1025.5 hPa | - | - | - | - |
| 1777726850 | 18.33° C | 71% | 1025.8 hPa | - | - | - | - |
| 1777725950 | 18.33° C | 71% | 1025.6 hPa | - | - | - | - |
| 1777725050 | 18.33° C | 72% | 1025.7 hPa | - | - | - | - |
| 1777724150 | 18.33° C | 72% | 1025.7 hPa | - | - | - | - |
| 1777723249 | 17.78° C | 72% | 1026 hPa | - | - | - | - |
| 1777722349 | 17.78° C | 72% | 1026.3 hPa | - | - | - | - |
| 1777721449 | 17.78° C | 71% | 1026.4 hPa | - | - | - | - |
| 1777720549 | 17.78° C | 71% | 1026.6 hPa | - | - | - | - |
| 1777719649 | 17.22° C | 71% | 1026.5 hPa | - | - | - | - |
| 1777718749 | 17.22° C | 72% | 1026.8 hPa | - | - | - | - |
* Rain since midnight (hover to see other rain measurements)
** Current wind speed in m/s (hover to see current wind gust speed)